Location: Caltech
(34.1382°N, 118.1253°W)
Time: 16:59:15
(UTC-07:00)

Iridium 94 - Visible Passes

Search period start: 28 May 2017 00:00
Search period end: 07 June 2017 00:00
Orbit: 775 x 780 km, 86.4° (Epoch: 27 May)

Date Brightness Start Highest point End Pass type
(mag) Time Alt. Az. Time Alt. Az. Time Alt. Az.
28 May 6.1 02:23:21 53° NNW 02:23:21 53° NNW 02:27:23 10° N visible
29 May 6.5 01:49:57 44° NE 01:49:57 44° NE 01:53:47 10° N visible
29 May 7.6 03:30:26 13° WNW 03:30:26 13° WNW 03:32:09 10° NW visible
30 May 7.2 01:16:34 26° ENE 01:16:34 26° ENE 01:19:46 10° NNE visible
30 May 7.0 02:57:02 24° WNW 02:57:02 24° WNW 03:00:15 10° NNW visible
31 May 7.9 00:43:09 14° ENE 00:43:09 14° ENE 00:44:58 10° NE visible
31 May 6.5 02:23:37 39° NW 02:23:37 39° NW 02:27:20 10° N visible
01 Jun 6.3 01:50:13 49° N 01:50:13 49° N 01:53:58 10° N visible
02 Jun 6.9 01:16:48 34° NE 01:16:48 34° NE 01:20:13 10° NNE visible
02 Jun 7.5 02:57:16 16° WNW 02:57:16 16° WNW 02:59:34 10° NW visible
03 Jun 7.5 00:43:22 20° ENE 00:43:22 20° ENE 00:45:58 10° NNE visible
03 Jun 6.9 02:23:50 28° NW 02:23:50 28° NW 02:27:07 10° NNW visible
04 Jun 8.1 00:09:56 11° ENE 00:09:56 11° ENE 00:10:21 10° ENE visible
04 Jun 6.5 01:50:24 43° NNW 01:50:24 43° NNW 01:54:00 10° N visible
05 Jun 6.6 01:16:57 42° NNE 01:16:57 42° NNE 01:20:29 10° N visible
05 Jun 7.9 02:57:25 11° WNW 02:57:25 11° WNW 02:58:03 10° WNW visible
06 Jun 7.1 00:43:30 27° NE 00:43:30 27° NE 00:46:34 10° NNE visible
06 Jun 7.3 02:23:58 20° WNW 02:23:58 20° WNW 02:26:41 10° NNW visible
